sat.trackr.live / text

‹ back to catalog

STARLINK-36739

NORAD 67802 · 2026-032F

PAYLOAD ACTIVE UNKNOWN

§ Identity

Operator
Country
US
Launch date
2026-02-15
Launch site
AFWTR
Launch vehicle
Mass (kg)
RCS (m²)

Purposes: comms

External: N2YO · Heavens-Above · Gunter

§ Orbital elements

Epoch: 2026-09-18T23:50:44.073888Z

Period
93.91 min
Inclination
97.2843°
Eccentricity
0.0004021
Mean motion
15.33452220 rev/d
Perigee alt
462.8 km
Apogee alt
468.3 km
Semi-major
6,843.7 km
B*
5.2725e-4
RAAN
88.4116°
Arg perigee
91.2473°
Mean anomaly
268.9230°
Rev number
3,458

§ Raw data

STARLINK-367391 67802U 26032F   26261.99356567  .00016992  00000+0  52725-3 0  99932 67802  97.2843  88.4116 0004021  91.2473 268.9230 15.33452220 34586

JSON: /api/v1/satellites/67802 · /tle

For live sub-satellite position, see the globe view (requires WebGL).

§ Visibility from observer

Set your observer location to see the next 7 days of passes ≥ 10°. The values pass through the URL so the page stays shareable.

No JS? Fill the form by hand. The geolocation button needs JavaScript.